Location: *
(46.0770°N, 1.6444°E)
Time: 18:50:42
(UTC+00:00)

CZ-2C R/B - Pass Details

Date: 16 September 2019
Orbit: 785 x 870 km, 98.3° (Epoch: 21 October)

Event Time Altitude Azimuth Distance (km) Brightness Sun altitude
Rises 19:28:10 0° 29° (NNE) 3,430 5.8 -15.1°
Reaches altitude 10° 19:31:33 10° 51° (NE) 2,501 4.9 -15.7°
Enters shadow 19:33:17 14° 69° (ENE) 2,202 4.4 -16.0°
